CW0811 Weather Reports


time (UTC)temp
C
wind
direction
speed
KPH
gust
KPH
rain 1hr
cm
rain 24hr
cm
rain mn
cm
humidity
%
barometer
mb
20260502194542 11 203 1.6 4.8 0.00 0.18 0.18 82 1009.7
20260502193043 11 0 0.0 3.2 0.00 0.18 0.18 83 1009.8
20260502191541 11 0 0.0 6.4 0.00 0.18 0.18 85 1010.0
20260502190101 10 0 1.6 4.8 0.03 0.18 0.18 86 1010.3
20260502184554 10 0 0.0 1.6 0.03 0.18 0.18 87 1010.5
20260502183043 10 0 0.0 1.6 0.05 0.18 0.18 88 1010.6
20260502181540 10 0 0.0 3.2 0.05 0.18 0.18 89 1010.4
20260502180112 10 0 0.0 3.2 0.08 0.15 0.15 89 1010.3
20260502163045 12 337 3.2 16.1 0.00 0.08 0.08 71 1010.2
20260502161545 13 222 3.2 17.7 0.00 0.08 0.08 69 1010.0
20260502151556 12 196 1.6 6.4 0.00 0.08 0.08 69 1010.6
20260502123041 10 88 1.6 11.3 0.00 0.08 0.08 89 1011.1
20260502121540 9 171 1.6 8.0 0.00 0.08 0.08 90 1011.3
20260502114547 8 0 0.0 6.4 0.05 0.08 0.08 91 1011.4
20260502113045 8 134 1.6 6.4 0.05 0.08 0.08 90 1011.5
20260502111548 8 0 1.6 4.8 0.03 0.05 0.05 90 1011.2
20260502110049 8 86 0.0 6.4 0.03 0.05 0.05 90 1011.4
20260502104553 8 0 0.0 0.0 0.00 0.03 0.03 90 1011.6
20260502103051 8 0 0.0 0.0 0.03 0.03 0.03 90 1011.4
20260502101605 8 0 0.0 0.0 0.03 0.03 0.03 89 1010.7
20260502070043 10 232 0.0 3.2 0.00 0.00 0.00 79 1010.4
20260502064544 10 0 0.0 4.8 0.00 0.00 0.00 77 1010.4
20260502063040 10 196 0.0 4.8 0.00 0.00 0.00 75 1010.5
20260502061547 10 0 0.0 6.4 0.00 0.00 0.00 75 1010.5
20260502060045 10 0 0.0 3.2 0.00 0.00 0.00 75 1010.9
20260502054544 10 0 0.0 4.8 0.00 0.00 0.00 73 1010.6
20260502053048 10 192 0.0 3.2 0.00 0.00 0.00 72 1010.6
20260502051554 10 0 0.0 4.8 0.00 0.00 0.00 71 1010.7
20260502050056 11 186 0.0 6.4 0.00 0.00 0.00 70 1010.7
20260502044543 11 0 0.0 6.4 0.00 0.00 0.00 69 1010.9
20260502043044 11 0 0.0 6.4 0.00 0.00 0.00 68 1010.8
20260502041542 11 0 0.0 3.2 0.00 0.00 0.00 68 1010.8
20260502040048 11 0 0.0 3.2 0.00 0.00 0.00 68 1010.8
20260502034548 11 211 0.0 4.8 0.00 0.00 0.00 68 1010.8
20260502033052 11 0 0.0 3.2 0.00 0.00 0.00 66 1010.9
20260502031545 11 213 0.0 3.2 0.00 0.00 0.00 66 1011.0
20260502030042 11 0 0.0 1.6 0.00 0.00 0.00 65 1010.9
20260502024541 11 214 0.0 3.2 0.00 0.00 0.00 64 1010.9
20260502023040 12 315 0.0 3.2 0.00 0.00 0.00 63 1011.0
20260502021545 12 0 0.0 8.0 0.00 0.00 0.00 62 1010.8
20260502020045 12 0 0.0 4.8 0.00 0.00 0.00 61 1010.9
20260502014544 12 176 0.0 4.8 0.00 0.00 0.00 59 1010.8
20260502013051 12 235 0.0 9.7 0.00 0.00 0.00 60 1010.7
20260502011557 12 228 3.2 12.9 0.00 0.00 0.00 58 1010.4
20260502010047 13 323 3.2 14.5 0.00 0.00 0.00 56 1010.5
20260502004557 13 165 3.2 9.7 0.00 0.00 0.00 51 1010.2
20260502003042 13 163 4.8 14.5 0.00 0.00 0.00 45 1010.0
20260502001541 14 184 0.0 8.0 0.00 0.00 0.00 44 1009.9
20260502000046 14 184 1.6 6.4 0.00 0.00 0.00 46 1009.9
20260501234542 15 200 1.6 9.7 0.00 0.00 0.00 42 1009.6
20260501233041 15 0 0.0 1.6 0.00 0.00 0.00 42 1009.1
20260501231551 15 0 0.0 1.6 0.00 0.00 0.00 40 1009.0
20260501230042 16 0 0.0 1.6 0.00 0.00 0.00 37 1009.0
20260501224542 16 0 0.0 1.6 0.00 0.00 0.00 38 1009.1
20260501223042 16 0 0.0 6.4 0.00 0.00 0.00 39 1008.9
20260501221605 16 78 0.0 3.2 0.00 0.00 0.00 38 1008.8
20260501220050 17 307 0.0 3.2 0.00 0.00 0.00 35 1008.8
20260501214542 17 0 0.0 3.2 0.00 0.00 0.00 35 1009.1
20260501213050 17 254 3.2 8.0 0.00 0.00 0.00 34 1009.0
20260501211548 17 252 0.0 4.8 0.00 0.00 0.00 37 1009.1
20260501210048 18 241 1.6 8.0 0.00 0.00 0.00 32 1009.1
20260501204545 17 190 3.2 6.4 0.00 0.00 0.00 33 1008.8
20260501203043 18 269 3.2 11.3 0.00 0.00 0.00 32 1008.9
20260501201542 17 308 1.6 9.7 0.00 0.00 0.00 34 1009.0
20260501200051 17 158 1.6 11.3 0.00 0.00 0.00 32 1008.9